Location: Chicago
(41.8500°N, 87.6500°W)
Time: 14:57:43
(UTC-05:00)

ISS - Visible Passes

Search period start: 05 May 2016 00:00
Search period end: 15 May 2016 00:00
Orbit: 402 x 405 km, 51.6° (Epoch: 05 May)

Date Brightness Start Highest point End Pass type
(mag) Time Alt. Az. Time Alt. Az. Time Alt. Az.
08 May -2.2 05:07:07 10° SSW 05:10:09 37° SE 05:13:13 10° ENE visible
09 May -1.3 04:15:47 12° S 04:17:45 20° SE 04:20:12 10° E visible
10 May -0.6 03:25:20 10° SE 03:25:25 10° SE 03:26:00 10° ESE visible
10 May -3.3 04:58:07 10° SW 05:01:23 90° NNW 05:04:39 10° NE visible
11 May -2.7 04:07:26 27° SSW 04:08:51 46° SE 04:12:00 10° ENE visible
12 May -1.5 03:16:50 23° ESE 03:16:50 23° ESE 03:19:06 10° E visible
12 May -2.5 04:49:35 10° WSW 04:52:42 42° NNW 04:55:50 10° NE visible
13 May -3.3 03:58:47 34° WSW 04:00:02 74° NW 04:03:19 10° NE visible
14 May -2.6 03:08:03 47° E 03:08:03 47° E 03:10:41 10° ENE visible
14 May -1.5 04:41:19 10° W 04:44:06 25° NNW 04:46:53 10° NE visible
